Meteo pe oră la Dziegciarnia

Astăzi, 27 Februarie, Sâmbătă

Timp Temperatura Precipitaţii Vânt Presiune Umiditate
00:00 +1°C° 0 mm 5 m/s 758 mmHg 90%
01:00 +1°C° 0 mm 5 m/s 759 mmHg 91%
02:00 +1°C° 0 mm 5 m/s 759 mmHg 90%
03:00 +1°C° 0 mm 5 m/s 759 mmHg 90%
04:00 +1°C° 0 mm 5 m/s 759 mmHg 90%
05:00 0°C° 0 mm 5 m/s 760 mmHg 91%
06:00 0°C° 0 mm 4 m/s 760 mmHg 92%
07:00 -1°C° 0 mm 4 m/s 761 mmHg 93%
08:00 +1°C° 0 mm 4 m/s 761 mmHg 88%
09:00 +3°C° 0 mm 4 m/s 761 mmHg 83%
10:00 +3°C° 0 mm 5 m/s 762 mmHg 77%
11:00 +5°C° 0 mm 5 m/s 762 mmHg 73%
12:00 +6°C° 0 mm 5 m/s 763 mmHg 68%
13:00 +7°C° 0 mm 5 m/s 763 mmHg 63%
14:00 +6°C° 0 mm 5 m/s 763 mmHg 63%
15:00 +6°C° 0 mm 4 m/s 763 mmHg 63%
16:00 +6°C° 0 mm 4 m/s 763 mmHg 63%
17:00 +5°C° 0 mm 4 m/s 763 mmHg 69%
18:00 +3°C° 0 mm 3 m/s 763 mmHg 76%
19:00 +2°C° 0 mm 3 m/s 763 mmHg 82%
20:00 +1°C° 0 mm 3 m/s 763 mmHg 84%
21:00 0°C° 0 mm 3 m/s 764 mmHg 86%
22:00 +1°C° 0 mm 2 m/s 764 mmHg 88%
23:00 +1°C° 0 mm 2 m/s 764 mmHg 87%

Mâine, 28 Februarie, Duminică

Timp Temperatura Precipitaţii Vânt Presiune Umiditate
00:00 +1°C° 0 mm 2 m/s 764 mmHg 86%
01:00 +1°C° 0 mm 2 m/s 764 mmHg 85%
02:00 0°C° 0 mm 3 m/s 763 mmHg 89%
03:00 0°C° 0 mm 3 m/s 763 mmHg 92%
04:00 0°C° 0 mm 3 m/s 763 mmHg 95%
05:00 0°C° 0 mm 3 m/s 763 mmHg 95%
06:00 0°C° 0 mm 3 m/s 763 mmHg 96%
07:00 +1°C° 0 mm 3 m/s 763 mmHg 97%
08:00 0°C° 0 mm 4 m/s 763 mmHg 96%
09:00 0°C° 0 mm 4 m/s 763 mmHg 95%
10:00 +1°C° 0 mm 4 m/s 763 mmHg 94%
11:00 +1°C° 0 mm 4 m/s 763 mmHg 92%
12:00 +3°C° 0 mm 4 m/s 763 mmHg 90%
13:00 +3°C° 0 mm 4 m/s 763 mmHg 88%
14:00 +4°C° 0 mm 4 m/s 763 mmHg 86%
15:00 +4°C° 0 mm 4 m/s 763 mmHg 84%
16:00 +4°C° 0 mm 3 m/s 762 mmHg 82%
17:00 +3°C° 0 mm 3 m/s 763 mmHg 85%
18:00 +3°C° 0 mm 2 m/s 763 mmHg 89%
19:00 +2°C° 0 mm 2 m/s 763 mmHg 92%
20:00 +2°C° 0 mm 2 m/s 764 mmHg 92%
21:00 +1°C° 0 mm 2 m/s 764 mmHg 92%
22:00 +1°C° 0 mm 2 m/s 764 mmHg 91%
23:00 +1°C° 0 mm 2 m/s 764 mmHg 90%

Poimâine, 1 Martie, Luni

Timp Temperatura Precipitaţii Vânt Presiune Umiditate
00:00 +1°C° 0 mm 2 m/s 764 mmHg 89%
01:00 +2°C° 0 mm 1 m/s 765 mmHg 88%
02:00 +2°C° 0 mm 1 m/s 764 mmHg 88%
03:00 +2°C° 0 mm 1 m/s 764 mmHg 87%
04:00 +2°C° 0 mm 1 m/s 764 mmHg 87%
05:00 +2°C° 0 mm 1 m/s 764 mmHg 87%
06:00 +2°C° 0 mm 1 m/s 764 mmHg 87%
07:00 +2°C° 0 mm 1 m/s 765 mmHg 88%
08:00 +3°C° 0 mm 2 m/s 765 mmHg 81%
09:00 +4°C° 0 mm 2 m/s 765 mmHg 75%
10:00 +6°C° 0 mm 2 m/s 765 mmHg 69%
11:00 +7°C° 0 mm 2 m/s 765 mmHg 67%
12:00 +8°C° 0 mm 3 m/s 765 mmHg 65%
13:00 +9°C° 0 mm 3 m/s 765 mmHg 63%
14:00 +9°C° 0 mm 3 m/s 764 mmHg 65%
15:00 +9°C° 0 mm 3 m/s 764 mmHg 67%
16:00 +9°C° 0 mm 3 m/s 764 mmHg 70%
17:00 +8°C° 0 mm 3 m/s 764 mmHg 75%
18:00 +5°C° 0 mm 3 m/s 764 mmHg 81%
19:00 +4°C° 0 mm 3 m/s 764 mmHg 86%
20:00 +4°C° 0 mm 3 m/s 764 mmHg 87%
21:00 +3°C° 0 mm 3 m/s 764 mmHg 89%
22:00 +3°C° 0 mm 3 m/s 764 mmHg 90%
23:00 +2°C° 0 mm 3 m/s 764 mmHg 90%

2 Martie, Marţi

Timp Temperatura Precipitaţii Vânt Presiune Umiditate
00:00 +2°C° 0 mm 3 m/s 764 mmHg 91%
01:00 +2°C° 0 mm 3 m/s 764 mmHg 91%
02:00 +2°C° 0 mm 3 m/s 763 mmHg 91%
03:00 +1°C° 0 mm 3 m/s 763 mmHg 91%
04:00 +1°C° 0 mm 3 m/s 763 mmHg 92%
05:00 +1°C° 0 mm 3 m/s 763 mmHg 92%
06:00 +1°C° 0 mm 3 m/s 763 mmHg 92%
07:00 0°C° 0 mm 3 m/s 763 mmHg 92%
08:00 +2°C° 0 mm 3 m/s 763 mmHg 86%
09:00 +4°C° 0 mm 3 m/s 763 mmHg 80%
10:00 +5°C° 0 mm 3 m/s 763 mmHg 74%
11:00 +8°C° 0 mm 3 m/s 763 mmHg 69%
12:00 +9°C° 0 mm 3 m/s 763 mmHg 63%
13:00 +10°C° 0 mm 3 m/s 763 mmHg 58%
14:00 +10°C° 0 mm 3 m/s 763 mmHg 59%
15:00 +10°C° 0 mm 2 m/s 763 mmHg 60%
16:00 +10°C° 0 mm 2 m/s 763 mmHg 62%
17:00 +9°C° 0 mm 2 m/s 763 mmHg 67%
18:00 +7°C° 0 mm 2 m/s 762 mmHg 73%
19:00 +7°C° 0 mm 1 m/s 762 mmHg 79%
20:00 +6°C° 0 mm 1 m/s 762 mmHg 81%
21:00 +5°C° 0 mm 1 m/s 763 mmHg 84%
22:00 +5°C° 0 mm 1 m/s 763 mmHg 87%
23:00 +4°C° 0 mm 1 m/s 763 mmHg 87%

3 Martie, Miercuri

Timp Temperatura Precipitaţii Vânt Presiune Umiditate
00:00 +4°C° 0 mm 1 m/s 762 mmHg 87%
01:00 +2°C° 0 mm 0 m/s 762 mmHg 87%
02:00 +2°C° 0 mm 0 m/s 762 mmHg 87%
03:00 +2°C° 0 mm 0 m/s 762 mmHg 87%
04:00 +2°C° 0 mm 0 m/s 762 mmHg 87%
05:00 +2°C° 0 mm 0 m/s 761 mmHg 87%
06:00 +2°C° 0 mm 0 m/s 761 mmHg 87%
07:00 +2°C° 0 mm 0 m/s 761 mmHg 87%
08:00 +3°C° 0 mm 0 m/s 761 mmHg 81%
09:00 +6°C° 0 mm 1 m/s 762 mmHg 75%
10:00 +8°C° 0 mm 1 m/s 762 mmHg 68%
11:00 +9°C° 0 mm 1 m/s 761 mmHg 65%
12:00 +10°C° 0 mm 1 m/s 761 mmHg 61%
13:00 +11°C° 0 mm 1 m/s 761 mmHg 58%
14:00 +11°C° 0 mm 1 m/s 760 mmHg 59%
15:00 +11°C° 0 mm 1 m/s 760 mmHg 61%
16:00 +11°C° 0 mm 1 m/s 760 mmHg 62%
17:00 +9°C° 0 mm 1 m/s 759 mmHg 67%
18:00 +8°C° 0 mm 1 m/s 759 mmHg 72%
19:00 +7°C° 0 mm 1 m/s 758 mmHg 77%
20:00 +6°C° 0 mm 1 m/s 758 mmHg 79%
21:00 +6°C° 0 mm 1 m/s 758 mmHg 81%
22:00 +4°C° 0 mm 2 m/s 758 mmHg 83%
23:00 +4°C° 0 mm 2 m/s 757 mmHg 85%

4 Martie, Joi

Timp Temperatura Precipitaţii Vânt Presiune Umiditate
00:00 +3°C° 0 mm 2 m/s 756 mmHg 86%
01:00 +3°C° 0 mm 2 m/s 756 mmHg 88%
02:00 +3°C° 0 mm 2 m/s 755 mmHg 89%
03:00 +3°C° 0 mm 2 m/s 755 mmHg 90%
04:00 +2°C° 0 mm 2 m/s 754 mmHg 91%
05:00 +2°C° 0 mm 2 m/s 754 mmHg 92%
06:00 +2°C° 0 mm 2 m/s 753 mmHg 93%
07:00 +2°C° 0 mm 2 m/s 753 mmHg 94%
08:00 +3°C° 0 mm 2 m/s 753 mmHg 89%
09:00 +5°C° 0 mm 2 m/s 752 mmHg 85%
10:00 +6°C° 0 mm 2 m/s 752 mmHg 81%
11:00 +6°C° 0.2 mm 2 m/s 752 mmHg 83%
12:00 +5°C° 0.2 mm 3 m/s 751 mmHg 85%
13:00 +5°C° 0.2 mm 3 m/s 751 mmHg 88%
14:00 +5°C° 0.4 mm 3 m/s 751 mmHg 90%
15:00 +6°C° 0.4 mm 2 m/s 750 mmHg 92%
16:00 +5°C° 0.4 mm 2 m/s 750 mmHg 95%
17:00 +4°C° 0.6 mm 3 m/s 750 mmHg 94%
18:00 +4°C° 0.6 mm 4 m/s 750 mmHg 94%
19:00 +3°C° 0.6 mm 4 m/s 750 mmHg 94%
20:00 +2°C° 0.2 mm 5 m/s 751 mmHg 92%
21:00 +1°C° 0.2 mm 5 m/s 751 mmHg 90%
22:00 +1°C° 0.2 mm 5 m/s 752 mmHg 88%
23:00 0°C° 0 mm 5 m/s 752 mmHg 86%
Arată mai mult

Formular de consimțământ

Meteoprog și furnizorii noștri de servicii pot stoca și accesa date personale, precum cookies, identificatori de dispozitiv sau alte tehnologii similare pe dispozitivul dumneavoastră și procesa astfel de date pentru a personaliza conținutul și reclamele, dar și pentru a oferi caracteristici de social media și pentru a analiza traficul.

  • Stocarea și/sau accesarea informațiilor pe dispozitivul dumneavoastră

    Cookies, identificatori de dispozitiv sau alte informații pot fi stocate sau accesate pe dispozitiv în scopurile indicate mai sus.

  • Reclame și conținut personalizat, evaluarea reclamelor și a conținutului, informații despre audiențe și dezvoltarea produselor

    Reclamele și conținutul pot fi personalizate pe baza unui profil. Pot fi adăugate date suplimentare pentru a personaliza mai bine reclamele și conținutul. Performanța reclamelor și conținutului poate fi măsurată. Pot fi obținute informații despre utilizatorii care au văzut reclamele și conținutul. Aceste date pot fi utilizate pentru a dezvolta sau îmbunătăți experiența utilizatorilor, sistemele și software-ul.

Dând clic pe ‘Sunt de acord’, permiteți utilizarea cookie-urilor menționate, a identificatorilor de dispozitiv, balizelor web sau altor tehnologii similare. Setările pot fi modificate din browser-ul dispozitivului dumneavoastră.

În anumite scopuri, interesele legitime pot prima asupra consimțământului. Puteți citi mai multe informații în acest sens în Politica privind Confidențialitatea Datelor și Cookie.